Time,TemperatureF,DewpointF,PressureIn,WindDirection,WindDirectionDegrees,WindSpeedMPH,WindSpeedGustMPH,Humidity,HourlyPrecipIn,Conditions,Clouds,dailyrainin,SoftwareType,DateUTC
2013-04-22 00:00:00,35.9,24.5,30.65,North,-999,0.0,0.0,63,0.00,,,-99.99,WeatherLink 5.5,2013-04-22 04:00:00,
2013-04-22 00:05:00,35.3,24.7,30.65,North,-999,0.0,0.0,65,0.00,,,-99.99,WeatherLink 5.5,2013-04-22 04:05:00,
2013-04-22 00:10:00,35.0,24.8,30.65,ENE,67,0.0,1.0,66,0.00,,,-99.99,WeatherLink 5.5,2013-04-22 04:10:00,
2013-04-22 00:15:00,35.0,24.8,30.65,ENE,67,0.0,1.0,66,0.00,,,-99.99,WeatherLink 5.5,2013-04-22 04:15:00,
2013-04-22 00:20:00,34.3,24.5,30.65,North,-999,0.0,0.0,67,0.00,,,-99.99,WeatherLink 5.5,2013-04-22 04:20:00,
2013-04-22 00:25:00,34.1,24.3,30.65,North,-999,0.0,0.0,67,0.00,,,-99.99,WeatherLink 5.5,2013-04-22 04:25:00,
2013-04-22 00:30:00,34.1,24.3,30.65,North,-999,0.0,0.0,67,0.00,,,-99.99,WeatherLink 5.5,2013-04-22 04:30:00,
2013-04-22 00:35:00,33.8,24.4,30.65,North,-999,0.0,0.0,68,0.00,,,-99.99,WeatherLink 5.5,2013-04-22 04:35:00,
2013-04-22 00:40:00,33.8,24.4,30.65,North,-999,0.0,0.0,68,0.00,,,-99.99,WeatherLink 5.5,2013-04-22 04:40:00,
2013-04-22 00:45:00,33.8,24.4,30.65,North,-999,0.0,0.0,68,0.00,,,-99.99,WeatherLink 5.5,2013-04-22 04:45:00,
2013-04-22 00:50:00,33.8,24.7,30.65,North,-999,0.0,0.0,69,0.00,,,-99.99,WeatherLink 5.5,2013-04-22 04:50:00,
2013-04-22 00:55:00,33.8,24.7,30.65,North,-999,0.0,0.0,69,0.00,,,-99.99,WeatherLink 5.5,2013-04-22 04:55:00,
2013-04-22 01:00:00,33.8,24.7,30.65,North,-999,0.0,0.0,69,0.00,,,-99.99,WeatherLink 5.5,2013-04-22 05:00:00,
2013-04-22 01:05:00,33.7,24.3,30.65,North,-999,0.0,0.0,68,0.00,,,-99.99,WeatherLink 5.5,2013-04-22 05:05:00,
2013-04-22 01:10:00,33.7,24.6,30.65,North,-999,0.0,0.0,69,0.00,,,-99.99,WeatherLink 5.5,2013-04-22 05:10:00,
2013-04-22 01:15:00,33.7,24.6,30.65,North,-999,0.0,0.0,69,0.00,,,-99.99,WeatherLink 5.5,2013-04-22 05:15:00,
2013-04-22 01:20:00,33.5,24.8,30.65,North,-999,0.0,0.0,70,0.00,,,-99.99,WeatherLink 5.5,2013-04-22 05:20:00,
2013-04-22 01:25:00,33.5,24.8,30.65,North,-999,0.0,0.0,70,0.00,,,-99.99,WeatherLink 5.5,2013-04-22 05:25:00,
2013-04-22 01:30:00,33.5,24.8,30.65,North,-999,0.0,0.0,70,0.00,,,-99.99,WeatherLink 5.5,2013-04-22 05:30:00,
2013-04-22 01:35:00,33.4,25.0,30.65,North,-999,0.0,0.0,71,0.00,,,-99.99,WeatherLink 5.5,2013-04-22 05:35:00,
2013-04-22 01:40:00,33.4,25.0,30.65,North,-999,0.0,0.0,71,0.00,,,-99.99,WeatherLink 5.5,2013-04-22 05:40:00,
2013-04-22 01:45:00,33.4,25.0,30.65,North,-999,0.0,0.0,71,0.00,,,-99.99,WeatherLink 5.5,2013-04-22 05:45:00,
2013-04-22 01:50:00,33.1,24.7,30.65,North,-999,0.0,0.0,71,0.00,,,-99.99,WeatherLink 5.5,2013-04-22 05:50:00,
2013-04-22 01:55:00,33.1,24.7,30.65,North,-999,0.0,0.0,71,0.00,,,-99.99,WeatherLink 5.5,2013-04-22 05:55:00,
2013-04-22 02:00:00,33.1,24.7,30.65,North,-999,0.0,0.0,71,0.00,,,-99.99,WeatherLink 5.5,2013-04-22 06:00:00,
2013-04-22 02:05:00,33.1,25.1,30.65,North,-999,0.0,0.0,72,0.00,,,-99.99,WeatherLink 5.5,2013-04-22 06:05:00,
2013-04-22 02:10:00,33.1,25.1,30.65,North,-999,0.0,0.0,72,0.00,,,-99.99,WeatherLink 5.5,2013-04-22 06:10:00,
2013-04-22 02:15:00,33.1,25.1,30.65,North,-999,0.0,0.0,72,0.00,,,-99.99,WeatherLink 5.5,2013-04-22 06:15:00,
2013-04-22 02:20:00,32.9,24.9,30.65,North,-999,0.0,0.0,72,0.00,,,-99.99,WeatherLink 5.5,2013-04-22 06:20:00,
2013-04-22 02:25:00,32.9,24.9,30.65,North,-999,0.0,0.0,72,0.00,,,-99.99,WeatherLink 5.5,2013-04-22 06:25:00,
2013-04-22 02:30:00,32.9,24.9,30.65,North,-999,0.0,0.0,72,0.00,,,-99.99,WeatherLink 5.5,2013-04-22 06:30:00,
2013-04-22 02:35:00,32.8,24.8,30.65,North,-999,0.0,0.0,72,0.00,,,-99.99,WeatherLink 5.5,2013-04-22 06:35:00,
2013-04-22 02:40:00,32.8,24.8,30.65,North,-999,0.0,0.0,72,0.00,,,-99.99,WeatherLink 5.5,2013-04-22 06:40:00,
2013-04-22 02:45:00,32.8,24.8,30.65,North,-999,0.0,0.0,72,0.00,,,-99.99,WeatherLink 5.5,2013-04-22 06:45:00,
2013-04-22 02:50:00,32.5,24.8,30.66,North,-999,0.0,0.0,73,0.00,,,-99.99,WeatherLink 5.5,2013-04-22 06:50:00,
2013-04-22 02:55:00,32.4,24.7,30.66,North,-999,0.0,0.0,73,0.00,,,-99.99,WeatherLink 5.5,2013-04-22 06:55:00,
2013-04-22 03:00:00,32.4,24.7,30.66,North,-999,0.0,0.0,73,0.00,,,-99.99,WeatherLink 5.5,2013-04-22 07:00:00,
2013-04-22 03:05:00,32.4,24.7,30.66,North,-999,0.0,0.0,73,0.00,,,-99.99,WeatherLink 5.5,2013-04-22 07:05:00,
2013-04-22 03:10:00,32.2,24.8,30.66,North,-999,0.0,0.0,74,0.00,,,-99.99,WeatherLink 5.5,2013-04-22 07:10:00,
2013-04-22 03:15:00,32.2,24.8,30.66,North,-999,0.0,0.0,74,0.00,,,-99.99,WeatherLink 5.5,2013-04-22 07:15:00,
2013-04-22 03:20:00,32.2,24.5,30.65,ENE,67,0.0,2.0,73,0.00,,,-99.99,WeatherLink 5.5,2013-04-22 07:20:00,
2013-04-22 03:25:00,32.1,24.4,30.65,North,-999,0.0,0.0,73,0.00,,,-99.99,WeatherLink 5.5,2013-04-22 07:25:00,
2013-04-22 03:30:00,32.1,24.4,30.65,North,-999,0.0,0.0,73,0.00,,,-99.99,WeatherLink 5.5,2013-04-22 07:30:00,
2013-04-22 03:35:00,32.1,24.4,30.65,North,-999,0.0,0.0,73,0.00,,,-99.99,WeatherLink 5.5,2013-04-22 07:35:00,
2013-04-22 03:40:00,32.2,24.2,30.65,North,-999,0.0,0.0,72,0.00,,,-99.99,WeatherLink 5.5,2013-04-22 07:40:00,
2013-04-22 03:45:00,32.2,24.2,30.65,North,-999,0.0,0.0,72,0.00,,,-99.99,WeatherLink 5.5,2013-04-22 07:45:00,
2013-04-22 03:50:00,32.1,24.1,30.66,North,-999,0.0,0.0,72,0.00,,,-99.99,WeatherLink 5.5,2013-04-22 07:50:00,
2013-04-22 03:55:00,31.9,23.9,30.66,North,-999,0.0,0.0,72,0.00,,,-99.99,WeatherLink 5.5,2013-04-22 07:55:00,
2013-04-22 04:00:00,31.9,23.9,30.66,North,-999,0.0,0.0,72,0.00,,,-99.99,WeatherLink 5.5,2013-04-22 08:00:00,
2013-04-22 04:05:00,31.6,23.9,30.67,North,-999,0.0,0.0,73,0.00,,,-99.99,WeatherLink 5.5,2013-04-22 08:05:00,
2013-04-22 04:10:00,31.5,24.2,30.67,North,-999,0.0,0.0,74,0.00,,,-99.99,WeatherLink 5.5,2013-04-22 08:10:00,
2013-04-22 04:15:00,31.5,24.2,30.67,North,-999,0.0,0.0,74,0.00,,,-99.99,WeatherLink 5.5,2013-04-22 08:15:00,
2013-04-22 04:20:00,31.2,23.9,30.67,North,-999,0.0,0.0,74,0.00,,,-99.99,WeatherLink 5.5,2013-04-22 08:20:00,
2013-04-22 04:25:00,31.0,23.7,30.67,North,-999,0.0,0.0,74,0.00,,,-99.99,WeatherLink 5.5,2013-04-22 08:25:00,
2013-04-22 04:30:00,31.0,23.7,30.67,North,-999,0.0,0.0,74,0.00,,,-99.99,WeatherLink 5.5,2013-04-22 08:30:00,
2013-04-22 04:35:00,30.7,23.4,30.67,North,-999,0.0,0.0,74,0.00,,,-99.99,WeatherLink 5.5,2013-04-22 08:35:00,
2013-04-22 04:40:00,30.6,23.3,30.67,North,-999,0.0,0.0,74,0.00,,,-99.99,WeatherLink 5.5,2013-04-22 08:40:00,
2013-04-22 04:45:00,30.6,23.3,30.67,North,-999,0.0,0.0,74,0.00,,,-99.99,WeatherLink 5.5,2013-04-22 08:45:00,
2013-04-22 04:50:00,30.3,23.3,30.68,North,-999,0.0,0.0,75,0.00,,,-99.99,WeatherLink 5.5,2013-04-22 08:50:00,
2013-04-22 04:55:00,30.1,23.1,30.68,North,-999,0.0,0.0,75,0.00,,,-99.99,WeatherLink 5.5,2013-04-22 08:55:00,
2013-04-22 05:00:00,30.1,23.1,30.68,North,-999,0.0,0.0,75,0.00,,,-99.99,WeatherLink 5.5,2013-04-22 09:00:00,
2013-04-22 05:05:00,30.0,23.0,30.68,North,-999,0.0,0.0,75,0.00,,,-99.99,WeatherLink 5.5,2013-04-22 09:05:00,
2013-04-22 05:10:00,30.0,23.4,30.68,North,-999,0.0,0.0,76,0.00,,,-99.99,WeatherLink 5.5,2013-04-22 09:10:00,
2013-04-22 05:15:00,30.0,23.4,30.68,North,-999,0.0,0.0,76,0.00,,,-99.99,WeatherLink 5.5,2013-04-22 09:15:00,
2013-04-22 05:20:00,30.0,23.4,30.68,North,-999,0.0,0.0,76,0.00,,,-99.99,WeatherLink 5.5,2013-04-22 09:20:00,
2013-04-22 05:25:00,29.8,23.2,30.68,North,-999,0.0,0.0,76,0.00,,,-99.99,WeatherLink 5.5,2013-04-22 09:25:00,
2013-04-22 05:30:00,29.8,23.2,30.68,North,-999,0.0,0.0,76,0.00,,,-99.99,WeatherLink 5.5,2013-04-22 09:30:00,
2013-04-22 05:35:00,29.7,23.1,30.69,North,-999,0.0,0.0,76,0.00,,,-99.99,WeatherLink 5.5,2013-04-22 09:35:00,
2013-04-22 05:40:00,29.5,22.9,30.69,North,-999,0.0,0.0,76,0.00,,,-99.99,WeatherLink 5.5,2013-04-22 09:40:00,
2013-04-22 05:45:00,29.5,22.9,30.69,North,-999,0.0,0.0,76,0.00,,,-99.99,WeatherLink 5.5,2013-04-22 09:45:00,
2013-04-22 05:50:00,29.4,23.1,30.69,North,-999,0.0,0.0,77,0.00,,,-99.99,WeatherLink 5.5,2013-04-22 09:50:00,
2013-04-22 05:55:00,29.4,23.1,30.69,North,-999,0.0,0.0,77,0.00,,,-99.99,WeatherLink 5.5,2013-04-22 09:55:00,
2013-04-22 06:00:00,29.4,23.1,30.69,North,-999,0.0,0.0,77,0.00,,,-99.99,WeatherLink 5.5,2013-04-22 10:00:00,
2013-04-22 06:05:00,29.4,23.1,30.70,North,-999,0.0,0.0,77,0.00,,,-99.99,WeatherLink 5.5,2013-04-22 10:05:00,
2013-04-22 06:10:00,29.2,22.9,30.70,North,-999,0.0,0.0,77,0.00,,,-99.99,WeatherLink 5.5,2013-04-22 10:10:00,
2013-04-22 06:15:00,29.2,22.9,30.70,North,-999,0.0,0.0,77,0.00,,,-99.99,WeatherLink 5.5,2013-04-22 10:15:00,
2013-04-22 06:20:00,29.4,23.4,30.70,North,-999,0.0,0.0,78,0.00,,,-99.99,WeatherLink 5.5,2013-04-22 10:20:00,
2013-04-22 06:25:00,29.5,23.5,30.70,North,-999,0.0,0.0,78,0.00,,,-99.99,WeatherLink 5.5,2013-04-22 10:25:00,
2013-04-22 06:30:00,29.5,23.5,30.70,North,-999,0.0,0.0,78,0.00,,,-99.99,WeatherLink 5.5,2013-04-22 10:30:00,
2013-04-22 06:35:00,29.8,23.8,30.70,North,-999,0.0,0.0,78,0.00,,,-99.99,WeatherLink 5.5,2013-04-22 10:35:00,
2013-04-22 06:40:00,30.1,24.1,30.70,North,-999,0.0,0.0,78,0.00,,,-99.99,WeatherLink 5.5,2013-04-22 10:40:00,
2013-04-22 06:45:00,30.1,24.1,30.70,North,-999,0.0,0.0,78,0.00,,,-99.99,WeatherLink 5.5,2013-04-22 10:45:00,
2013-04-22 06:50:00,30.9,24.8,30.70,North,-999,0.0,0.0,78,0.00,,,-99.99,WeatherLink 5.5,2013-04-22 10:50:00,
2013-04-22 06:55:00,31.3,24.6,30.70,ENE,67,0.0,1.0,76,0.00,,,-99.99,WeatherLink 5.5,2013-04-22 10:55:00,
2013-04-22 07:00:00,31.3,24.6,30.70,ENE,67,0.0,1.0,76,0.00,,,-99.99,WeatherLink 5.5,2013-04-22 11:00:00,
2013-04-22 07:05:00,32.1,24.4,30.70,North,-999,0.0,0.0,73,0.00,,,-99.99,WeatherLink 5.5,2013-04-22 11:05:00,
2013-04-22 07:10:00,32.4,23.7,30.70,ENE,67,0.0,1.0,70,0.00,,,-99.99,WeatherLink 5.5,2013-04-22 11:10:00,
2013-04-22 07:15:00,32.4,23.7,30.70,ENE,67,0.0,1.0,70,0.00,,,-99.99,WeatherLink 5.5,2013-04-22 11:15:00,
2013-04-22 07:20:00,33.5,23.7,30.70,North,-999,0.0,0.0,67,0.00,,,-99.99,WeatherLink 5.5,2013-04-22 11:20:00,
2013-04-22 07:25:00,34.0,23.8,30.70,North,-999,0.0,0.0,66,0.00,,,-99.99,WeatherLink 5.5,2013-04-22 11:25:00,
2013-04-22 07:30:00,34.0,23.8,30.70,North,-999,0.0,0.0,66,0.00,,,-99.99,WeatherLink 5.5,2013-04-22 11:30:00,
2013-04-22 07:35:00,34.7,23.4,30.71,ENE,67,0.0,1.0,63,0.00,,,-99.99,WeatherLink 5.5,2013-04-22 11:35:00,
2013-04-22 07:40:00,35.2,23.9,30.71,ENE,67,0.0,1.0,63,0.00,,,-99.99,WeatherLink 5.5,2013-04-22 11:40:00,
2013-04-22 07:45:00,35.2,23.9,30.71,ENE,67,0.0,1.0,63,0.00,,,-99.99,WeatherLink 5.5,2013-04-22 11:45:00,
2013-04-22 07:50:00,36.0,23.4,30.71,ENE,67,0.0,1.0,60,0.00,,,-99.99,WeatherLink 5.5,2013-04-22 11:50:00,
2013-04-22 07:55:00,36.5,23.9,30.71,North,-999,0.0,0.0,60,0.00,,,-99.99,WeatherLink 5.5,2013-04-22 11:55:00,
2013-04-22 08:00:00,36.5,23.9,30.71,North,-999,0.0,0.0,60,0.00,,,-99.99,WeatherLink 5.5,2013-04-22 12:00:00,
2013-04-22 08:05:00,37.3,23.9,30.71,ENE,67,0.0,1.0,58,0.00,,,-99.99,WeatherLink 5.5,2013-04-22 12:05:00,
2013-04-22 08:10:00,38.0,24.5,30.71,North,-999,0.0,0.0,58,0.00,,,-99.99,WeatherLink 5.5,2013-04-22 12:10:00,
2013-04-22 08:15:00,38.0,24.5,30.71,North,-999,0.0,0.0,58,0.00,,,-99.99,WeatherLink 5.5,2013-04-22 12:15:00,
2013-04-22 08:20:00,38.9,23.7,30.71,NE,45,1.0,6.0,54,0.00,,,-99.99,WeatherLink 5.5,2013-04-22 12:20:00,
2013-04-22 08:25:00,39.6,23.9,30.71,NE,45,1.0,7.0,53,0.00,,,-99.99,WeatherLink 5.5,2013-04-22 12:25:00,
2013-04-22 08:30:00,39.6,23.9,30.71,NE,45,1.0,7.0,53,0.00,,,-99.99,WeatherLink 5.5,2013-04-22 12:30:00,
2013-04-22 08:35:00,40.5,23.8,30.71,NNE,22,2.0,8.0,51,0.00,,,-99.99,WeatherLink 5.5,2013-04-22 12:35:00,
2013-04-22 08:40:00,40.9,23.7,30.71,NE,45,4.0,8.0,50,0.00,,,-99.99,WeatherLink 5.5,2013-04-22 12:40:00,
2013-04-22 08:45:00,40.9,23.7,30.71,NE,45,4.0,8.0,50,0.00,,,-99.99,WeatherLink 5.5,2013-04-22 12:45:00,
2013-04-22 08:50:00,42.0,24.2,30.71,NE,45,1.0,6.0,49,0.00,,,-99.99,WeatherLink 5.5,2013-04-22 12:50:00,
2013-04-22 08:55:00,42.2,23.4,30.71,NNE,22,6.0,13.0,47,0.00,,,-99.99,WeatherLink 5.5,2013-04-22 12:55:00,
2013-04-22 09:00:00,42.2,23.4,30.71,NNE,22,6.0,13.0,47,0.00,,,-99.99,WeatherLink 5.5,2013-04-22 13:00:00,
2013-04-22 09:05:00,43.0,24.1,30.70,NE,45,7.0,15.0,47,0.00,,,-99.99,WeatherLink 5.5,2013-04-22 13:05:00,
2013-04-22 09:10:00,43.5,24.1,30.70,NE,45,5.0,11.0,46,0.00,,,-99.99,WeatherLink 5.5,2013-04-22 13:10:00,
2013-04-22 09:15:00,43.5,24.1,30.70,NE,45,5.0,11.0,46,0.00,,,-99.99,WeatherLink 5.5,2013-04-22 13:15:00,
2013-04-22 09:20:00,44.5,24.5,30.71,NNE,22,4.0,11.0,45,0.00,,,-99.99,WeatherLink 5.5,2013-04-22 13:20:00,
2013-04-22 09:25:00,44.8,23.6,30.71,NNE,22,5.0,13.0,43,0.00,,,-99.99,WeatherLink 5.5,2013-04-22 13:25:00,
2013-04-22 09:30:00,44.8,23.6,30.71,NNE,22,5.0,13.0,43,0.00,,,-99.99,WeatherLink 5.5,2013-04-22 13:30:00,
2013-04-22 09:35:00,45.2,24.6,30.70,NNE,22,3.0,7.0,44,0.00,,,-99.99,WeatherLink 5.5,2013-04-22 13:35:00,
2013-04-22 09:40:00,46.2,24.3,30.70,NNE,22,2.0,8.0,42,0.00,,,-99.99,WeatherLink 5.5,2013-04-22 13:40:00,
2013-04-22 09:45:00,46.2,24.3,30.70,NNE,22,2.0,8.0,42,0.00,,,-99.99,WeatherLink 5.5,2013-04-22 13:45:00,
2013-04-22 09:50:00,45.8,22.8,30.71,NE,45,5.0,11.0,40,0.00,,,-99.99,WeatherLink 5.5,2013-04-22 13:50:00,
2013-04-22 09:55:00,45.9,24.1,30.71,ENE,67,6.0,14.0,42,0.00,,,-99.99,WeatherLink 5.5,2013-04-22 13:55:00,
2013-04-22 10:00:00,45.9,24.1,30.71,ENE,67,6.0,14.0,42,0.00,,,-99.99,WeatherLink 5.5,2013-04-22 14:00:00,
2013-04-22 10:05:00,46.4,23.4,30.71,ENE,67,4.0,10.0,40,0.00,,,-99.99,WeatherLink 5.5,2013-04-22 14:05:00,
2013-04-22 10:10:00,45.9,23.5,30.71,NE,45,6.0,11.0,41,0.00,,,-99.99,WeatherLink 5.5,2013-04-22 14:10:00,
2013-04-22 10:15:00,45.9,23.5,30.71,NE,45,6.0,11.0,41,0.00,,,-99.99,WeatherLink 5.5,2013-04-22 14:15:00,
2013-04-22 10:20:00,45.5,24.8,30.73,ENE,67,3.0,9.0,44,0.00,,,-99.99,WeatherLink 5.5,2013-04-22 14:20:00,
2013-04-22 10:25:00,46.2,24.9,30.73,ENE,67,5.0,11.0,43,0.00,,,-99.99,WeatherLink 5.5,2013-04-22 14:25:00,
2013-04-22 10:30:00,46.2,24.9,30.73,ENE,67,5.0,11.0,43,0.00,,,-99.99,WeatherLink 5.5,2013-04-22 14:30:00,
2013-04-22 10:35:00,46.5,25.2,30.73,NE,45,2.0,9.0,43,0.00,,,-99.99,WeatherLink 5.5,2013-04-22 14:35:00,
2013-04-22 10:40:00,47.3,21.0,30.73,ENE,67,6.0,13.0,35,0.00,,,-99.99,WeatherLink 5.5,2013-04-22 14:40:00,
2013-04-22 10:45:00,47.3,21.0,30.73,ENE,67,6.0,13.0,35,0.00,,,-99.99,WeatherLink 5.5,2013-04-22 14:45:00,
2013-04-22 10:50:00,49.2,19.0,30.73,NE,45,6.0,16.0,30,0.00,,,-99.99,WeatherLink 5.5,2013-04-22 14:50:00,
2013-04-22 10:55:00,48.3,17.5,30.73,ENE,67,7.0,16.0,29,0.00,,,-99.99,WeatherLink 5.5,2013-04-22 14:55:00,
2013-04-22 11:00:00,48.3,17.5,30.73,ENE,67,7.0,16.0,29,0.00,,,-99.99,WeatherLink 5.5,2013-04-22 15:00:00,
2013-04-22 11:05:00,49.2,19.8,30.71,ENE,67,5.0,10.0,31,0.00,,,-99.99,WeatherLink 5.5,2013-04-22 15:05:00,
2013-04-22 11:10:00,49.3,18.3,30.71,ENE,67,7.0,14.0,29,0.00,,,-99.99,WeatherLink 5.5,2013-04-22 15:10:00,
2013-04-22 11:15:00,49.3,18.3,30.71,ENE,67,7.0,14.0,29,0.00,,,-99.99,WeatherLink 5.5,2013-04-22 15:15:00,
2013-04-22 11:20:00,49.5,19.3,30.70,NE,45,6.0,11.0,30,0.00,,,-99.99,WeatherLink 5.5,2013-04-22 15:20:00,
2013-04-22 11:25:00,49.6,16.9,30.70,NE,45,6.0,10.0,27,0.00,,,-99.99,WeatherLink 5.5,2013-04-22 15:25:00,
2013-04-22 11:30:00,49.6,16.9,30.70,NE,45,6.0,10.0,27,0.00,,,-99.99,WeatherLink 5.5,2013-04-22 15:30:00,
2013-04-22 11:35:00,50.7,17.0,30.69,ENE,67,4.0,11.0,26,0.00,,,-99.99,WeatherLink 5.5,2013-04-22 15:35:00,
2013-04-22 11:40:00,50.4,15.8,30.69,NNE,22,7.0,15.0,25,0.00,,,-99.99,WeatherLink 5.5,2013-04-22 15:40:00,
2013-04-22 11:45:00,50.4,15.8,30.69,NNE,22,7.0,15.0,25,0.00,,,-99.99,WeatherLink 5.5,2013-04-22 15:45:00,
2013-04-22 11:50:00,50.1,16.5,30.69,NE,45,5.0,14.0,26,0.00,,,-99.99,WeatherLink 5.5,2013-04-22 15:50:00,
2013-04-22 11:55:00,50.4,17.6,30.69,East,90,5.0,11.0,27,0.00,,,-99.99,WeatherLink 5.5,2013-04-22 15:55:00,
2013-04-22 12:00:00,50.4,17.6,30.69,East,90,5.0,11.0,27,0.00,,,-99.99,WeatherLink 5.5,2013-04-22 16:00:00,
2013-04-22 12:05:00,50.4,13.9,30.68,NE,45,8.0,15.0,23,0.00,,,-99.99,WeatherLink 5.5,2013-04-22 16:05:00,
2013-04-22 12:10:00,50.4,14.9,30.68,NE,45,6.0,13.0,24,0.00,,,-99.99,WeatherLink 5.5,2013-04-22 16:10:00,
2013-04-22 12:15:00,50.4,14.9,30.68,NE,45,6.0,13.0,24,0.00,,,-99.99,WeatherLink 5.5,2013-04-22 16:15:00,
2013-04-22 12:20:00,50.7,15.2,30.68,NNE,22,7.0,16.0,24,0.00,,,-99.99,WeatherLink 5.5,2013-04-22 16:20:00,
2013-04-22 12:25:00,50.7,15.2,30.68,NNE,22,7.0,14.0,24,0.00,,,-99.99,WeatherLink 5.5,2013-04-22 16:25:00,
2013-04-22 12:30:00,50.7,15.2,30.68,NNE,22,7.0,14.0,24,0.00,,,-99.99,WeatherLink 5.5,2013-04-22 16:30:00,
2013-04-22 12:35:00,50.2,15.7,30.67,ENE,67,10.0,18.0,25,0.00,,,-99.99,WeatherLink 5.5,2013-04-22 16:35:00,
2013-04-22 12:40:00,50.2,17.5,30.67,NE,45,7.0,15.0,27,0.00,,,-99.99,WeatherLink 5.5,2013-04-22 16:40:00,
2013-04-22 12:45:00,50.2,17.5,30.67,NE,45,7.0,15.0,27,0.00,,,-99.99,WeatherLink 5.5,2013-04-22 16:45:00,
2013-04-22 12:50:00,49.6,17.8,30.67,ENE,67,6.0,11.0,28,0.00,,,-99.99,WeatherLink 5.5,2013-04-22 16:50:00,
2013-04-22 12:55:00,50.5,15.0,30.67,ENE,67,7.0,11.0,24,0.00,,,-99.99,WeatherLink 5.5,2013-04-22 16:55:00,
2013-04-22 13:00:00,50.5,15.0,30.67,ENE,67,7.0,11.0,24,0.00,,,-99.99,WeatherLink 5.5,2013-04-22 17:00:00,
2013-04-22 13:05:00,50.5,15.0,30.67,NNE,22,7.0,15.0,24,0.00,,,-99.99,WeatherLink 5.5,2013-04-22 17:05:00,
2013-04-22 13:10:00,50.2,15.7,30.67,ENE,67,6.0,14.0,25,0.00,,,-99.99,WeatherLink 5.5,2013-04-22 17:10:00,
2013-04-22 13:15:00,50.2,15.7,30.67,ENE,67,6.0,14.0,25,0.00,,,-99.99,WeatherLink 5.5,2013-04-22 17:15:00,
2013-04-22 13:20:00,50.7,14.2,30.68,NE,45,5.0,11.0,23,0.00,,,-99.99,WeatherLink 5.5,2013-04-22 17:20:00,
2013-04-22 13:25:00,49.9,13.5,30.68,NNE,22,9.0,17.0,23,0.00,,,-99.99,WeatherLink 5.5,2013-04-22 17:25:00,
2013-04-22 13:30:00,49.9,13.5,30.68,NNE,22,9.0,17.0,23,0.00,,,-99.99,WeatherLink 5.5,2013-04-22 17:30:00,
2013-04-22 13:35:00,50.8,16.2,30.67,East,90,3.0,8.0,25,0.00,,,-99.99,WeatherLink 5.5,2013-04-22 17:35:00,
2013-04-22 13:40:00,51.6,15.9,30.67,NNE,22,3.0,10.0,24,0.00,,,-99.99,WeatherLink 5.5,2013-04-22 17:40:00,
2013-04-22 13:45:00,51.6,15.9,30.67,NNE,22,3.0,10.0,24,0.00,,,-99.99,WeatherLink 5.5,2013-04-22 17:45:00,
2013-04-22 13:50:00,51.4,17.6,30.66,East,90,4.0,13.0,26,0.00,,,-99.99,WeatherLink 5.5,2013-04-22 17:50:00,
2013-04-22 13:55:00,50.2,14.7,30.66,NNE,22,8.0,16.0,24,0.00,,,-99.99,WeatherLink 5.5,2013-04-22 17:55:00,
2013-04-22 14:00:00,50.2,14.7,30.66,NNE,22,8.0,16.0,24,0.00,,,-99.99,WeatherLink 5.5,2013-04-22 18:00:00,
2013-04-22 14:05:00,49.8,14.4,30.67,ENE,67,8.0,14.0,24,0.00,,,-99.99,WeatherLink 5.5,2013-04-22 18:05:00,
2013-04-22 14:10:00,50.4,17.6,30.67,ENE,67,6.0,16.0,27,0.00,,,-99.99,WeatherLink 5.5,2013-04-22 18:10:00,
2013-04-22 14:15:00,50.4,17.6,30.67,ENE,67,6.0,16.0,27,0.00,,,-99.99,WeatherLink 5.5,2013-04-22 18:15:00,
2013-04-22 14:20:00,50.4,15.8,30.66,ENE,67,5.0,11.0,25,0.00,,,-99.99,WeatherLink 5.5,2013-04-22 18:20:00,
2013-04-22 14:25:00,50.5,15.9,30.66,NNE,22,7.0,14.0,25,0.00,,,-99.99,WeatherLink 5.5,2013-04-22 18:25:00,
2013-04-22 14:30:00,50.5,15.9,30.66,NNE,22,7.0,14.0,25,0.00,,,-99.99,WeatherLink 5.5,2013-04-22 18:30:00,
2013-04-22 14:35:00,49.5,15.1,30.64,ENE,67,9.0,15.0,25,0.00,,,-99.99,WeatherLink 5.5,2013-04-22 18:35:00,
2013-04-22 14:40:00,49.6,14.2,30.64,ENE,67,9.0,18.0,24,0.00,,,-99.99,WeatherLink 5.5,2013-04-22 18:40:00,
2013-04-22 14:45:00,49.6,14.2,30.64,ENE,67,9.0,18.0,24,0.00,,,-99.99,WeatherLink 5.5,2013-04-22 18:45:00,
2013-04-22 14:50:00,49.9,16.3,30.63,NNE,22,7.0,14.0,26,0.00,,,-99.99,WeatherLink 5.5,2013-04-22 18:50:00,
2013-04-22 14:55:00,50.1,14.7,30.63,NE,45,7.0,13.0,24,0.00,,,-99.99,WeatherLink 5.5,2013-04-22 18:55:00,
2013-04-22 15:00:00,50.1,14.7,30.63,NE,45,7.0,13.0,24,0.00,,,-99.99,WeatherLink 5.5,2013-04-22 19:00:00,
2013-04-22 15:05:00,50.2,14.7,30.64,ENE,67,6.0,13.0,24,0.00,,,-99.99,WeatherLink 5.5,2013-04-22 19:05:00,
2013-04-22 15:10:00,50.1,15.6,30.64,NE,45,6.0,11.0,25,0.00,,,-99.99,WeatherLink 5.5,2013-04-22 19:10:00,
2013-04-22 15:15:00,50.1,15.6,30.64,NE,45,6.0,11.0,25,0.00,,,-99.99,WeatherLink 5.5,2013-04-22 19:15:00,
2013-04-22 15:20:00,49.8,14.4,30.63,ENE,67,4.0,9.0,24,0.00,,,-99.99,WeatherLink 5.5,2013-04-22 19:20:00,
2013-04-22 15:25:00,49.9,14.5,30.63,ENE,67,5.0,11.0,24,0.00,,,-99.99,WeatherLink 5.5,2013-04-22 19:25:00,
2013-04-22 15:30:00,49.9,14.5,30.63,ENE,67,5.0,11.0,24,0.00,,,-99.99,WeatherLink 5.5,2013-04-22 19:30:00,
2013-04-22 15:35:00,49.8,13.4,30.62,NNE,22,6.0,13.0,23,0.00,,,-99.99,WeatherLink 5.5,2013-04-22 19:35:00,
2013-04-22 15:40:00,49.8,13.4,30.62,ENE,67,5.0,11.0,23,0.00,,,-99.99,WeatherLink 5.5,2013-04-22 19:40:00,
2013-04-22 15:45:00,49.8,13.4,30.62,ENE,67,5.0,11.0,23,0.00,,,-99.99,WeatherLink 5.5,2013-04-22 19:45:00,
2013-04-22 15:50:00,49.5,12.2,30.63,NE,45,8.0,14.0,22,0.00,,,-99.99,WeatherLink 5.5,2013-04-22 19:50:00,
2013-04-22 15:55:00,49.2,13.9,30.63,NE,45,4.0,10.0,24,0.00,,,-99.99,WeatherLink 5.5,2013-04-22 19:55:00,
2013-04-22 16:00:00,49.2,13.9,30.63,NE,45,4.0,10.0,24,0.00,,,-99.99,WeatherLink 5.5,2013-04-22 20:00:00,
2013-04-22 16:05:00,48.8,12.6,30.62,NE,45,9.0,14.0,23,0.00,,,-99.99,WeatherLink 5.5,2013-04-22 20:05:00,
2013-04-22 16:10:00,48.9,14.6,30.62,ENE,67,6.0,14.0,25,0.00,,,-99.99,WeatherLink 5.5,2013-04-22 20:10:00,
2013-04-22 16:15:00,48.9,14.6,30.62,ENE,67,6.0,14.0,25,0.00,,,-99.99,WeatherLink 5.5,2013-04-22 20:15:00,
2013-04-22 16:20:00,49.5,16.9,30.62,ENE,67,3.0,9.0,27,0.00,,,-99.99,WeatherLink 5.5,2013-04-22 20:20:00,
2013-04-22 16:25:00,49.8,15.3,30.62,ENE,67,5.0,13.0,25,0.00,,,-99.99,WeatherLink 5.5,2013-04-22 20:25:00,
2013-04-22 16:30:00,49.8,15.3,30.62,ENE,67,5.0,13.0,25,0.00,,,-99.99,WeatherLink 5.5,2013-04-22 20:30:00,
2013-04-22 16:35:00,49.8,17.1,30.62,NE,45,3.0,8.0,27,0.00,,,-99.99,WeatherLink 5.5,2013-04-22 20:35:00,
2013-04-22 16:40:00,49.8,18.0,30.62,NNE,22,5.0,17.0,28,0.00,,,-99.99,WeatherLink 5.5,2013-04-22 20:40:00,
2013-04-22 16:45:00,49.8,18.0,30.62,NNE,22,5.0,17.0,28,0.00,,,-99.99,WeatherLink 5.5,2013-04-22 20:45:00,
2013-04-22 16:50:00,49.5,20.8,30.60,ENE,67,8.0,15.0,32,0.00,,,-99.99,WeatherLink 5.5,2013-04-22 20:50:00,
2013-04-22 16:55:00,49.1,22.6,30.60,East,90,5.0,13.0,35,0.00,,,-99.99,WeatherLink 5.5,2013-04-22 20:55:00,
2013-04-22 17:00:00,49.1,22.6,30.60,East,90,5.0,13.0,35,0.00,,,-99.99,WeatherLink 5.5,2013-04-22 21:00:00,
2013-04-22 17:05:00,47.7,24.5,30.61,ENE,67,7.0,14.0,40,0.00,,,-99.99,WeatherLink 5.5,2013-04-22 21:05:00,
2013-04-22 17:10:00,47.4,25.4,30.61,NE,45,7.0,15.0,42,0.00,,,-99.99,WeatherLink 5.5,2013-04-22 21:10:00,
2013-04-22 17:15:00,47.4,25.4,30.61,NE,45,7.0,15.0,42,0.00,,,-99.99,WeatherLink 5.5,2013-04-22 21:15:00,
2013-04-22 17:20:00,47.3,25.9,30.61,NE,45,6.0,14.0,43,0.00,,,-99.99,WeatherLink 5.5,2013-04-22 21:20:00,
2013-04-22 17:25:00,47.0,26.2,30.61,NE,45,4.0,14.0,44,0.00,,,-99.99,WeatherLink 5.5,2013-04-22 21:25:00,
2013-04-22 17:30:00,47.0,26.2,30.61,NE,45,4.0,14.0,44,0.00,,,-99.99,WeatherLink 5.5,2013-04-22 21:30:00,
2013-04-22 17:35:00,46.4,25.6,30.62,NE,45,8.0,16.0,44,0.00,,,-99.99,WeatherLink 5.5,2013-04-22 21:35:00,
2013-04-22 17:40:00,46.1,25.4,30.62,NE,45,7.0,14.0,44,0.00,,,-99.99,WeatherLink 5.5,2013-04-22 21:40:00,
2013-04-22 17:45:00,46.1,25.4,30.62,NE,45,7.0,14.0,44,0.00,,,-99.99,WeatherLink 5.5,2013-04-22 21:45:00,
2013-04-22 17:50:00,46.4,25.6,30.61,ENE,67,6.0,15.0,44,0.00,,,-99.99,WeatherLink 5.5,2013-04-22 21:50:00,
2013-04-22 17:55:00,46.1,25.4,30.61,ENE,67,6.0,15.0,44,0.00,,,-99.99,WeatherLink 5.5,2013-04-22 21:55:00,
2013-04-22 18:00:00,46.1,25.4,30.61,ENE,67,6.0,15.0,44,0.00,,,-99.99,WeatherLink 5.5,2013-04-22 22:00:00,
2013-04-22 18:05:00,45.2,25.1,30.61,NE,45,6.0,10.0,45,0.00,,,-99.99,WeatherLink 5.5,2013-04-22 22:05:00,
2013-04-22 18:10:00,45.1,26.1,30.61,NE,45,7.0,15.0,47,0.00,,,-99.99,WeatherLink 5.5,2013-04-22 22:10:00,
2013-04-22 18:15:00,45.1,26.1,30.61,NE,45,7.0,15.0,47,0.00,,,-99.99,WeatherLink 5.5,2013-04-22 22:15:00,
2013-04-22 18:20:00,44.9,25.9,30.62,NE,45,5.0,11.0,47,0.00,,,-99.99,WeatherLink 5.5,2013-04-22 22:20:00,
2013-04-22 18:25:00,44.9,26.4,30.62,NE,45,3.0,8.0,48,0.00,,,-99.99,WeatherLink 5.5,2013-04-22 22:25:00,
2013-04-22 18:30:00,44.9,26.4,30.62,NE,45,3.0,8.0,48,0.00,,,-99.99,WeatherLink 5.5,2013-04-22 22:30:00,
2013-04-22 18:35:00,44.8,26.8,30.61,NE,45,3.0,10.0,49,0.00,,,-99.99,WeatherLink 5.5,2013-04-22 22:35:00,
2013-04-22 18:40:00,44.6,26.6,30.61,ENE,67,6.0,13.0,49,0.00,,,-99.99,WeatherLink 5.5,2013-04-22 22:40:00,
2013-04-22 18:45:00,44.6,26.6,30.61,ENE,67,6.0,13.0,49,0.00,,,-99.99,WeatherLink 5.5,2013-04-22 22:45:00,
2013-04-22 18:50:00,44.0,26.5,30.62,NE,45,8.0,13.0,50,0.00,,,-99.99,WeatherLink 5.5,2013-04-22 22:50:00,
2013-04-22 18:55:00,43.9,26.4,30.62,NE,45,6.0,13.0,50,0.00,,,-99.99,WeatherLink 5.5,2013-04-22 22:55:00,
2013-04-22 19:00:00,43.9,26.4,30.62,NE,45,6.0,13.0,50,0.00,,,-99.99,WeatherLink 5.5,2013-04-22 23:00:00,
2013-04-22 19:05:00,43.9,26.0,30.62,ENE,67,3.0,6.0,49,0.00,,,-99.99,WeatherLink 5.5,2013-04-22 23:05:00,
2013-04-22 19:10:00,43.8,25.9,30.62,NE,45,4.0,11.0,49,0.00,,,-99.99,WeatherLink 5.5,2013-04-22 23:10:00,
2013-04-22 19:15:00,43.8,25.9,30.62,NE,45,4.0,11.0,49,0.00,,,-99.99,WeatherLink 5.5,2013-04-22 23:15:00,
2013-04-22 19:20:00,43.6,26.2,30.61,NE,45,4.0,11.0,50,0.00,,,-99.99,WeatherLink 5.5,2013-04-22 23:20:00,
2013-04-22 19:25:00,43.5,26.6,30.61,NE,45,4.0,11.0,51,0.00,,,-99.99,WeatherLink 5.5,2013-04-22 23:25:00,
2013-04-22 19:30:00,43.5,26.6,30.61,NE,45,4.0,11.0,51,0.00,,,-99.99,WeatherLink 5.5,2013-04-22 23:30:00,
2013-04-22 19:35:00,43.3,26.8,30.61,NE,45,4.0,9.0,52,0.00,,,-99.99,WeatherLink 5.5,2013-04-22 23:35:00,
2013-04-22 19:40:00,43.2,27.2,30.61,ENE,67,5.0,9.0,53,0.00,,,-99.99,WeatherLink 5.5,2013-04-22 23:40:00,
2013-04-22 19:45:00,43.2,27.2,30.61,ENE,67,5.0,9.0,53,0.00,,,-99.99,WeatherLink 5.5,2013-04-22 23:45:00,
2013-04-22 19:50:00,42.9,27.4,30.61,NE,45,3.0,7.0,54,0.00,,,-99.99,WeatherLink 5.5,2013-04-22 23:50:00,
2013-04-22 19:55:00,42.8,27.7,30.61,NE,45,3.0,7.0,55,0.00,,,-99.99,WeatherLink 5.5,2013-04-22 23:55:00,
2013-04-22 20:00:00,42.8,27.7,30.61,NE,45,3.0,7.0,55,0.00,,,-99.99,WeatherLink 5.5,2013-04-23 00:00:00,
2013-04-22 20:05:00,42.6,28.0,30.62,NNE,22,3.0,8.0,56,0.00,,,-99.99,WeatherLink 5.5,2013-04-23 00:05:00,
2013-04-22 20:10:00,42.6,28.0,30.62,NE,45,3.0,7.0,56,0.00,,,-99.99,WeatherLink 5.5,2013-04-23 00:10:00,
2013-04-22 20:15:00,42.6,28.0,30.62,NE,45,3.0,7.0,56,0.00,,,-99.99,WeatherLink 5.5,2013-04-23 00:15:00,
2013-04-22 20:20:00,42.3,27.3,30.62,NE,45,4.0,8.0,55,0.00,,,-99.99,WeatherLink 5.5,2013-04-23 00:20:00,
2013-04-22 20:25:00,42.0,27.4,30.62,NE,45,6.0,11.0,56,0.00,,,-99.99,WeatherLink 5.5,2013-04-23 00:25:00,
2013-04-22 20:30:00,42.0,27.4,30.62,NE,45,6.0,11.0,56,0.00,,,-99.99,WeatherLink 5.5,2013-04-23 00:30:00,
2013-04-22 20:35:00,41.6,27.1,30.61,NNE,22,6.0,11.0,56,0.00,,,-99.99,WeatherLink 5.5,2013-04-23 00:35:00,
2013-04-22 20:40:00,41.3,26.8,30.61,NE,45,4.0,9.0,56,0.00,,,-99.99,WeatherLink 5.5,2013-04-23 00:40:00,
2013-04-22 20:45:00,41.3,26.8,30.61,NE,45,4.0,9.0,56,0.00,,,-99.99,WeatherLink 5.5,2013-04-23 00:45:00,
2013-04-22 20:50:00,41.0,26.9,30.62,NE,45,0.0,7.0,57,0.00,,,-99.99,WeatherLink 5.5,2013-04-23 00:50:00,
2013-04-22 20:55:00,40.9,27.2,30.62,NNE,22,2.0,8.0,58,0.00,,,-99.99,WeatherLink 5.5,2013-04-23 00:55:00,
2013-04-22 21:00:00,40.9,27.2,30.62,NNE,22,2.0,8.0,58,0.00,,,-99.99,WeatherLink 5.5,2013-04-23 01:00:00,
2013-04-22 21:05:00,40.5,27.7,30.62,ENE,67,3.0,10.0,60,0.00,,,-99.99,WeatherLink 5.5,2013-04-23 01:05:00,
2013-04-22 21:10:00,40.3,27.5,30.62,ENE,67,2.0,7.0,60,0.00,,,-99.99,WeatherLink 5.5,2013-04-23 01:10:00,
2013-04-22 21:15:00,40.3,27.5,30.62,ENE,67,2.0,7.0,60,0.00,,,-99.99,WeatherLink 5.5,2013-04-23 01:15:00,
2013-04-22 21:20:00,40.2,27.4,30.61,NE,45,2.0,6.0,60,0.00,,,-99.99,WeatherLink 5.5,2013-04-23 01:20:00,
2013-04-22 21:25:00,40.0,27.2,30.61,NE,45,2.0,6.0,60,0.00,,,-99.99,WeatherLink 5.5,2013-04-23 01:25:00,
2013-04-22 21:30:00,40.0,27.2,30.61,NE,45,2.0,6.0,60,0.00,,,-99.99,WeatherLink 5.5,2013-04-23 01:30:00,
2013-04-22 21:35:00,39.9,27.5,30.62,ENE,67,4.0,7.0,61,0.00,,,-99.99,WeatherLink 5.5,2013-04-23 01:35:00,
2013-04-22 21:40:00,39.8,27.8,30.62,ENE,67,1.0,8.0,62,0.00,,,-99.99,WeatherLink 5.5,2013-04-23 01:40:00,
2013-04-22 21:45:00,39.8,27.8,30.62,ENE,67,1.0,8.0,62,0.00,,,-99.99,WeatherLink 5.5,2013-04-23 01:45:00,
2013-04-22 21:50:00,39.6,27.6,30.61,NE,45,1.0,4.0,62,0.00,,,-99.99,WeatherLink 5.5,2013-04-23 01:50:00,
2013-04-22 21:55:00,39.6,27.6,30.61,NE,45,1.0,6.0,62,0.00,,,-99.99,WeatherLink 5.5,2013-04-23 01:55:00,
2013-04-22 22:00:00,39.6,27.6,30.61,NE,45,1.0,6.0,62,0.00,,,-99.99,WeatherLink 5.5,2013-04-23 02:00:00,
2013-04-22 22:05:00,39.6,28.0,30.61,NE,45,2.0,7.0,63,0.00,,,-99.99,WeatherLink 5.5,2013-04-23 02:05:00,
2013-04-22 22:10:00,39.5,27.5,30.61,ENE,67,2.0,8.0,62,0.00,,,-99.99,WeatherLink 5.5,2013-04-23 02:10:00,
2013-04-22 22:15:00,39.5,27.5,30.61,ENE,67,2.0,8.0,62,0.00,,,-99.99,WeatherLink 5.5,2013-04-23 02:15:00,
2013-04-22 22:20:00,39.3,27.4,30.60,NE,45,2.0,6.0,62,0.00,,,-99.99,WeatherLink 5.5,2013-04-23 02:20:00,
2013-04-22 22:25:00,39.3,27.4,30.60,ENE,67,1.0,6.0,62,0.00,,,-99.99,WeatherLink 5.5,2013-04-23 02:25:00,
2013-04-22 22:30:00,39.3,27.4,30.60,ENE,67,1.0,6.0,62,0.00,,,-99.99,WeatherLink 5.5,2013-04-23 02:30:00,
2013-04-22 22:35:00,39.2,27.7,30.59,NE,45,0.0,2.0,63,0.00,,,-99.99,WeatherLink 5.5,2013-04-23 02:35:00,
2013-04-22 22:40:00,39.0,27.5,30.59,NE,45,0.0,2.0,63,0.00,,,-99.99,WeatherLink 5.5,2013-04-23 02:40:00,
2013-04-22 22:45:00,39.0,27.5,30.59,NE,45,0.0,2.0,63,0.00,,,-99.99,WeatherLink 5.5,2013-04-23 02:45:00,
2013-04-22 22:50:00,38.9,27.4,30.59,NE,45,1.0,6.0,63,0.00,,,-99.99,WeatherLink 5.5,2013-04-23 02:50:00,
2013-04-22 22:55:00,38.8,27.3,30.59,ENE,67,0.0,2.0,63,0.00,,,-99.99,WeatherLink 5.5,2013-04-23 02:55:00,
2013-04-22 23:00:00,38.8,27.3,30.59,ENE,67,0.0,2.0,63,0.00,,,-99.99,WeatherLink 5.5,2013-04-23 03:00:00,
2013-04-22 23:05:00,38.6,27.5,30.58,North,-999,0.0,0.0,64,0.00,,,-99.99,WeatherLink 5.5,2013-04-23 03:05:00,
2013-04-22 23:10:00,38.5,27.4,30.58,NE,45,0.0,1.0,64,0.00,,,-99.99,WeatherLink 5.5,2013-04-23 03:10:00,
2013-04-22 23:15:00,38.5,27.4,30.58,NE,45,0.0,1.0,64,0.00,,,-99.99,WeatherLink 5.5,2013-04-23 03:15:00,
2013-04-22 23:20:00,38.2,27.5,30.58,NE,45,0.0,1.0,65,0.00,,,-99.99,WeatherLink 5.5,2013-04-23 03:20:00,
2013-04-22 23:25:00,38.0,27.3,30.58,North,-999,0.0,0.0,65,0.00,,,-99.99,WeatherLink 5.5,2013-04-23 03:25:00,
2013-04-22 23:30:00,38.0,27.3,30.58,North,-999,0.0,0.0,65,0.00,,,-99.99,WeatherLink 5.5,2013-04-23 03:30:00,
2013-04-22 23:35:00,37.9,27.5,30.58,NNE,22,0.0,4.0,66,0.00,,,-99.99,WeatherLink 5.5,2013-04-23 03:35:00,
2013-04-22 23:40:00,37.9,27.5,30.58,North,-999,0.0,0.0,66,0.00,,,-99.99,WeatherLink 5.5,2013-04-23 03:40:00,
2013-04-22 23:45:00,37.9,27.5,30.58,North,-999,0.0,0.0,66,0.00,,,-99.99,WeatherLink 5.5,2013-04-23 03:45:00,
2013-04-22 23:50:00,37.6,27.3,30.58,North,-999,0.0,0.0,66,0.00,,,-99.99,WeatherLink 5.5,2013-04-23 03:50:00,
2013-04-22 23:55:00,37.5,27.2,30.58,North,-999,0.0,0.0,66,0.00,,,-99.99,WeatherLink 5.5,2013-04-23 03:55:00,